| time (UTC) | temp C | wind direction | speed KPH | gust KPH | rain 1hr cm | rain 24hr cm | rain mn cm | humidity % | barometer mb |
| 20260905181052 | 30 | 278 | 0.0 | 4.8 | 0.00 | 0.00 | 0.00 | 25 | 985.9 |
| 20260905180553 | 30 | 177 | 1.6 | 9.7 | 0.00 | 0.00 | 0.00 | 26 | 986.0 |
| 20260905180052 | 30 | 322 | 1.6 | 9.7 | 0.00 | 0.00 | 0.00 | 26 | 986.0 |
| 20260905175552 | 30 | 267 | 0.0 | 4.8 | 0.00 | 0.00 | 0.00 | 25 | 985.9 |
| 20260905175051 | 30 | 248 | 0.0 | 6.4 | 0.00 | 0.00 | 0.00 | 26 | 986.0 |
| 20260905174550 | 30 | 297 | 1.6 | 8.0 | 0.00 | 0.00 | 0.00 | 27 | 986.0 |
| 20260905174050 | 30 | 248 | 1.6 | 8.0 | 0.00 | 0.00 | 0.00 | 27 | 986.1 |
| 20260905173554 | 29 | 257 | 0.0 | 6.4 | 0.00 | 0.00 | 0.00 | 27 | 986.1 |
| 20260905173550 | 30 | 319 | 0.0 | 3.2 | 0.00 | 0.00 | 0.00 | 26 | 986.1 |
| 20260905173154 | 28 | 181 | 0.0 | 3.2 | 0.00 | 0.00 | 0.00 | 29 | 986.4 |
| 20260905172548 | 28 | 293 | 0.0 | 6.4 | 0.00 | 0.00 | 0.00 | 28 | 986.3 |
| 20260905171549 | 28 | 321 | 0.0 | 1.6 | 0.00 | 0.00 | 0.00 | 27 | 986.4 |
| 20260905171049 | 28 | 255 | 0.0 | 8.0 | 0.00 | 0.00 | 0.00 | 28 | 986.1 |
| 20260905170548 | 28 | 29 | 1.6 | 9.7 | 0.00 | 0.00 | 0.00 | 28 | 986.1 |
| 20260905170048 | 27 | 168 | 3.2 | 11.3 | 0.00 | 0.00 | 0.00 | 29 | 986.1 |
| 20260905165548 | 27 | 21 | 3.2 | 11.3 | 0.00 | 0.00 | 0.00 | 28 | 986.1 |
| 20260905165048 | 27 | 17 | 0.0 | 6.4 | 0.00 | 0.00 | 0.00 | 28 | 986.1 |
| 20260905164548 | 27 | 146 | 1.6 | 9.7 | 0.00 | 0.00 | 0.00 | 29 | 986.3 |
| 20260905164046 | 27 | 311 | 1.6 | 9.7 | 0.00 | 0.00 | 0.00 | 28 | 986.1 |
| 20260905163546 | 27 | 326 | 1.6 | 9.7 | 0.00 | 0.00 | 0.00 | 30 | 986.1 |
| 20260905163046 | 26 | 323 | 1.6 | 9.7 | 0.00 | 0.00 | 0.00 | 30 | 986.1 |
| 20260905162546 | 26 | 343 | 1.6 | 8.0 | 0.00 | 0.00 | 0.00 | 30 | 986.1 |
| 20260905162046 | 26 | 30 | 1.6 | 4.8 | 0.00 | 0.00 | 0.00 | 30 | 986.3 |
| 20260905161550 | 26 | 23 | 1.6 | 8.0 | 0.00 | 0.00 | 0.00 | 30 | 986.1 |
| 20260905161546 | 26 | 15 | 1.6 | 8.0 | 0.00 | 0.00 | 0.00 | 29 | 986.1 |
| 20260905160546 | 26 | 311 | 1.6 | 6.4 | 0.00 | 0.00 | 0.00 | 32 | 986.1 |
| 20260905160047 | 25 | 348 | 3.2 | 8.0 | 0.00 | 0.00 | 0.00 | 31 | 986.0 |
| 20260905155548 | 25 | 335 | 1.6 | 8.0 | 0.00 | 0.00 | 0.00 | 32 | 986.0 |
| 20260905155544 | 25 | 321 | 3.2 | 8.0 | 0.00 | 0.00 | 0.00 | 32 | 985.9 |
| 20260905154543 | 25 | 328 | 3.2 | 8.0 | 0.00 | 0.00 | 0.00 | 31 | 985.9 |
| 20260905154044 | 25 | 7 | 3.2 | 11.3 | 0.00 | 0.00 | 0.00 | 31 | 985.9 |
| 20260905153542 | 25 | 310 | 3.2 | 11.3 | 0.00 | 0.00 | 0.00 | 30 | 986.0 |
| 20260905153043 | 25 | 333 | 3.2 | 9.7 | 0.00 | 0.00 | 0.00 | 32 | 986.0 |
| 20260905152546 | 25 | 320 | 0.0 | 6.4 | 0.00 | 0.00 | 0.00 | 33 | 986.0 |
| 20260905152542 | 25 | 2 | 1.6 | 9.7 | 0.00 | 0.00 | 0.00 | 31 | 986.0 |
| 20260905151542 | 24 | 302 | 0.0 | 4.8 | 0.00 | 0.00 | 0.00 | 34 | 986.0 |
| 20260905151042 | 24 | 225 | 0.0 | 4.8 | 0.00 | 0.00 | 0.00 | 36 | 986.0 |
| 20260905150546 | 23 | 1 | 0.0 | 6.4 | 0.00 | 0.00 | 0.00 | 36 | 986.0 |
| 20260905150542 | 23 | 331 | 0.0 | 3.2 | 0.00 | 0.00 | 0.00 | 36 | 986.0 |
| 20260905145542 | 23 | 333 | 0.0 | 6.4 | 0.00 | 0.00 | 0.00 | 37 | 986.0 |
| 20260905145045 | 22 | 231 | 0.0 | 6.4 | 0.00 | 0.00 | 0.00 | 41 | 986.1 |
| 20260905145041 | 22 | 281 | 0.0 | 3.2 | 0.00 | 0.00 | 0.00 | 39 | 986.1 |
| 20260905144042 | 22 | 243 | 1.6 | 6.4 | 0.00 | 0.00 | 0.00 | 42 | 986.0 |
| 20260905143541 | 21 | 311 | 0.0 | 4.8 | 0.00 | 0.00 | 0.00 | 43 | 986.0 |
| 20260905143046 | 20 | 326 | 0.0 | 4.8 | 0.00 | 0.00 | 0.00 | 47 | 986.0 |
| 20260905143042 | 21 | 299 | 0.0 | 4.8 | 0.00 | 0.00 | 0.00 | 44 | 986.0 |
| 20260905142045 | 19 | 305 | 0.0 | 4.8 | 0.00 | 0.00 | 0.00 | 49 | 986.0 |
| 20260905142041 | 18 | 320 | 0.0 | 1.6 | 0.00 | 0.00 | 0.00 | 55 | 985.9 |
| 20260905141040 | 17 | 160 | 0.0 | 0.0 | 0.00 | 0.00 | 0.00 | 60 | 985.8 |
| 20260905140540 | 16 | 162 | 0.0 | 0.0 | 0.00 | 0.00 | 0.00 | 64 | 985.8 |
| 20260905140039 | 16 | 162 | 0.0 | 0.0 | 0.00 | 0.00 | 0.00 | 65 | 985.7 |
| 20260905135540 | 16 | 162 | 0.0 | 0.0 | 0.00 | 0.00 | 0.00 | 67 | 985.7 |
| 20260905135040 | 15 | 162 | 0.0 | 0.0 | 0.00 | 0.00 | 0.00 | 68 | 985.6 |
| 20260905134537 | 15 | 162 | 0.0 | 0.0 | 0.00 | 0.00 | 0.00 | 70 | 985.4 |
| 20260905134038 | 14 | 162 | 0.0 | 0.0 | 0.00 | 0.00 | 0.00 | 72 | 985.4 |
| 20260905133538 | 14 | 162 | 0.0 | 0.0 | 0.00 | 0.00 | 0.00 | 74 | 985.6 |
| 20260905133035 | 13 | 162 | 0.0 | 0.0 | 0.00 | 0.00 | 0.00 | 74 | 985.6 |
| 20260905132534 | 13 | 162 | 0.0 | 0.0 | 0.00 | 0.00 | 0.00 | 74 | 985.6 |
| 20260905132034 | 13 | 162 | 0.0 | 0.0 | 0.00 | 0.00 | 0.00 | 76 | 985.6 |
| 20260905131535 | 13 | 162 | 0.0 | 0.0 | 0.00 | 0.00 | 0.00 | 76 | 985.6 |
| 20260905131034 | 13 | 162 | 0.0 | 0.0 | 0.00 | 0.00 | 0.00 | 77 | 985.6 |
| 20260905130533 | 13 | 162 | 0.0 | 0.0 | 0.00 | 0.00 | 0.00 | 75 | 985.4 |
| 20260905130037 | 13 | 162 | 0.0 | 0.0 | 0.00 | 0.00 | 0.00 | 75 | 985.3 |
| 20260905130033 | 13 | 162 | 0.0 | 0.0 | 0.00 | 0.00 | 0.00 | 75 | 985.4 |
| 20260905125639 | 13 | 162 | 0.0 | 0.0 | 0.00 | 0.00 | 0.00 | 76 | 985.1 |
| 20260905125033 | 13 | 162 | 0.0 | 0.0 | 0.00 | 0.00 | 0.00 | 75 | 985.1 |
| 20260905124033 | 12 | 162 | 0.0 | 0.0 | 0.00 | 0.00 | 0.00 | 77 | 985.1 |
| 20260905123539 | 12 | 162 | 0.0 | 0.0 | 0.00 | 0.00 | 0.00 | 76 | 985.0 |
| 20260905123534 | 12 | 162 | 0.0 | 0.0 | 0.00 | 0.00 | 0.00 | 77 | 985.0 |
| 20260905122533 | 13 | 162 | 0.0 | 0.0 | 0.00 | 0.00 | 0.00 | 74 | 984.8 |
| 20260905122034 | 13 | 134 | 0.0 | 0.0 | 0.00 | 0.00 | 0.00 | 74 | 984.7 |
| 20260905121534 | 13 | 134 | 0.0 | 1.6 | 0.00 | 0.00 | 0.00 | 73 | 984.7 |
| 20260905121038 | 13 | 134 | 0.0 | 0.0 | 0.00 | 0.00 | 0.00 | 72 | 984.7 |
| 20260905121034 | 13 | 134 | 0.0 | 1.6 | 0.00 | 0.00 | 0.00 | 72 | 984.7 |
| 20260905120034 | 13 | 134 | 0.0 | 0.0 | 0.00 | 0.00 | 0.00 | 72 | 984.6 |
| 20260905115533 | 14 | 134 | 0.0 | 0.0 | 0.00 | 0.00 | 0.00 | 71 | 984.6 |
| 20260905115034 | 14 | 177 | 0.0 | 0.0 | 0.00 | 0.00 | 0.00 | 71 | 984.5 |
| 20260905114534 | 14 | 205 | 0.0 | 0.0 | 0.00 | 0.00 | 0.00 | 71 | 984.6 |
| 20260905114034 | 15 | 261 | 0.0 | 0.0 | 0.00 | 0.00 | 0.00 | 71 | 984.6 |
| 20260905113533 | 15 | 308 | 0.0 | 0.0 | 0.00 | 0.00 | 0.00 | 70 | 984.6 |
| 20260905113032 | 15 | 308 | 0.0 | 0.0 | 0.00 | 0.00 | 0.00 | 70 | 984.6 |
| 20260905112532 | 15 | 309 | 0.0 | 0.0 | 0.00 | 0.00 | 0.00 | 70 | 984.6 |
| 20260905112034 | 16 | 308 | 0.0 | 1.6 | 0.00 | 0.00 | 0.00 | 67 | 984.7 |
| 20260905112030 | 15 | 308 | 0.0 | 0.0 | 0.00 | 0.00 | 0.00 | 68 | 984.6 |
| 20260905111030 | 15 | 304 | 0.0 | 1.6 | 0.00 | 0.00 | 0.00 | 68 | 984.6 |
| 20260905110530 | 15 | 130 | 0.0 | 0.0 | 0.00 | 0.00 | 0.00 | 68 | 984.6 |
| 20260905110030 | 16 | 130 | 0.0 | 0.0 | 0.00 | 0.00 | 0.00 | 67 | 984.7 |
| 20260905105527 | 16 | 130 | 0.0 | 1.6 | 0.00 | 0.00 | 0.00 | 66 | 984.6 |
| 20260905105028 | 16 | 130 | 0.0 | 1.6 | 0.00 | 0.00 | 0.00 | 65 | 984.6 |
| 20260905104528 | 16 | 119 | 0.0 | 1.6 | 0.00 | 0.00 | 0.00 | 65 | 984.5 |
| 20260905104028 | 16 | 118 | 0.0 | 1.6 | 0.00 | 0.00 | 0.00 | 64 | 984.5 |
| 20260905103528 | 16 | 137 | 0.0 | 0.0 | 0.00 | 0.00 | 0.00 | 64 | 984.5 |
| 20260905103027 | 17 | 137 | 0.0 | 1.6 | 0.00 | 0.00 | 0.00 | 62 | 984.5 |
| 20260905102527 | 17 | 137 | 0.0 | 3.2 | 0.00 | 0.00 | 0.00 | 63 | 984.5 |
| 20260905102032 | 16 | 158 | 1.6 | 6.4 | 0.00 | 0.00 | 0.00 | 65 | 984.4 |
| 20260905102028 | 17 | 157 | 0.0 | 4.8 | 0.00 | 0.00 | 0.00 | 63 | 984.4 |
| 20260905101527 | 17 | 150 | 1.6 | 4.8 | 0.00 | 0.00 | 0.00 | 64 | 984.4 |
| 20260905100525 | 16 | 202 | 1.6 | 6.4 | 0.00 | 0.00 | 0.00 | 67 | 984.4 |
| 20260905100025 | 16 | 141 | 0.0 | 4.8 | 0.00 | 0.00 | 0.00 | 67 | 984.4 |
| 20260905095528 | 16 | 152 | 0.0 | 0.0 | 0.00 | 0.00 | 0.00 | 68 | 984.6 |
| 20260905095524 | 16 | 190 | 0.0 | 0.0 | 0.00 | 0.00 | 0.00 | 68 | 984.5 |
| 20260905095023 | 16 | 235 | 0.0 | 0.0 | 0.00 | 0.00 | 0.00 | 68 | 984.6 |
| 20260905094024 | 16 | 159 | 0.0 | 0.0 | 0.00 | 0.00 | 0.00 | 66 | 984.5 |
| 20260905093632 | 17 | 149 | 0.0 | 6.4 | 0.00 | 0.00 | 0.00 | 64 | 984.4 |
| 20260905093527 | 17 | 149 | 0.0 | 3.2 | 0.00 | 0.00 | 0.00 | 64 | 984.4 |
| 20260905093523 | 16 | 176 | 0.0 | 0.0 | 0.00 | 0.00 | 0.00 | 65 | 984.4 |
| 20260905092022 | 17 | 159 | 1.6 | 8.0 | 0.00 | 0.00 | 0.00 | 63 | 984.4 |
| 20260905091521 | 17 | 191 | 1.6 | 9.7 | 0.00 | 0.00 | 0.00 | 62 | 984.3 |
| 20260905091026 | 18 | 181 | 3.2 | 8.0 | 0.00 | 0.00 | 0.00 | 60 | 984.4 |
| 20260905091021 | 18 | 181 | 3.2 | 9.7 | 0.00 | 0.00 | 0.00 | 61 | 984.4 |
| 20260905090521 | 18 | 198 | 3.2 | 9.7 | 0.00 | 0.00 | 0.00 | 61 | 984.4 |
| 20260905085521 | 18 | 183 | 1.6 | 6.4 | 0.00 | 0.00 | 0.00 | 59 | 984.5 |
| 20260905085021 | 19 | 176 | 1.6 | 6.4 | 0.00 | 0.00 | 0.00 | 57 | 984.4 |
| 20260905084522 | 19 | 143 | 3.2 | 8.0 | 0.00 | 0.00 | 0.00 | 54 | 984.4 |
| 20260905084025 | 20 | 207 | 3.2 | 6.4 | 0.00 | 0.00 | 0.00 | 54 | 984.4 |
| 20260905084021 | 20 | 186 | 3.2 | 8.0 | 0.00 | 0.00 | 0.00 | 54 | 984.4 |
| 20260905083020 | 20 | 181 | 4.8 | 9.7 | 0.00 | 0.00 | 0.00 | 53 | 984.4 |
| 20260905082519 | 20 | 205 | 6.4 | 12.9 | 0.00 | 0.00 | 0.00 | 54 | 984.4 |
| 20260905082019 | 20 | 194 | 4.8 | 12.9 | 0.00 | 0.00 | 0.00 | 55 | 984.4 |
| 20260905081519 | 19 | 236 | 4.8 | 9.7 | 0.00 | 0.00 | 0.00 | 56 | 984.5 |
| 20260905081019 | 20 | 200 | 4.8 | 11.3 | 0.00 | 0.00 | 0.00 | 56 | 984.5 |
| 20260905080520 | 19 | 192 | 3.2 | 11.3 | 0.00 | 0.00 | 0.00 | 56 | 984.4 |
| 20260905080019 | 19 | 204 | 3.2 | 8.0 | 0.00 | 0.00 | 0.00 | 57 | 984.4 |
| 20260905075524 | 18 | 192 | 1.6 | 8.0 | 0.00 | 0.00 | 0.00 | 58 | 984.5 |
| 20260905075520 | 18 | 174 | 3.2 | 8.0 | 0.00 | 0.00 | 0.00 | 58 | 984.4 |
| 20260905074519 | 19 | 155 | 1.6 | 12.9 | 0.00 | 0.00 | 0.00 | 57 | 984.5 |
| 20260905074018 | 19 | 170 | 4.8 | 12.9 | 0.00 | 0.00 | 0.00 | 57 | 984.5 |
| 20260905073517 | 19 | 148 | 6.4 | 14.5 | 0.00 | 0.00 | 0.00 | 56 | 984.5 |
| 20260905073018 | 19 | 143 | 6.4 | 14.5 | 0.00 | 0.00 | 0.00 | 56 | 984.5 |
| 20260905072517 | 19 | 180 | 3.2 | 12.9 | 0.00 | 0.00 | 0.00 | 56 | 984.6 |
| 20260905072017 | 19 | 210 | 0.0 | 6.4 | 0.00 | 0.00 | 0.00 | 57 | 984.6 |
| 20260905071517 | 19 | 228 | 0.0 | 4.8 | 0.00 | 0.00 | 0.00 | 56 | 984.6 |
| 20260905071017 | 18 | 219 | 0.0 | 4.8 | 0.00 | 0.00 | 0.00 | 57 | 984.7 |
| 20260905070522 | 19 | 147 | 0.0 | 0.0 | 0.00 | 0.00 | 0.00 | 55 | 984.7 |
| 20260905070517 | 18 | 147 | 0.0 | 0.0 | 0.00 | 0.00 | 0.00 | 56 | 984.7 |
| 20260905065515 | 19 | 129 | 0.0 | 0.0 | 0.00 | 0.00 | 0.00 | 56 | 984.6 |
| 20260905065014 | 19 | 207 | 0.0 | 0.0 | 0.00 | 0.00 | 0.00 | 55 | 984.6 |
| 20260905064513 | 20 | 186 | 0.0 | 3.2 | 0.00 | 0.00 | 0.00 | 54 | 984.6 |
| 20260905064017 | 20 | 234 | 1.6 | 6.4 | 0.00 | 0.00 | 0.00 | 54 | 984.6 |
| 20260905064013 | 20 | 223 | 1.6 | 6.4 | 0.00 | 0.00 | 0.00 | 54 | 984.6 |
| 20260905063011 | 19 | 207 | 0.0 | 4.8 | 0.00 | 0.00 | 0.00 | 55 | 984.6 |
| 20260905062510 | 19 | 202 | 0.0 | 3.2 | 0.00 | 0.00 | 0.00 | 55 | 984.6 |
| 20260905062015 | 19 | 316 | 0.0 | 0.0 | 0.00 | 0.00 | 0.00 | 54 | 984.4 |
| 20260905062011 | 19 | 198 | 0.0 | 3.2 | 0.00 | 0.00 | 0.00 | 55 | 984.5 |
| 20260905061011 | 18 | 258 | 0.0 | 0.0 | 0.00 | 0.00 | 0.00 | 56 | 984.4 |
| 20260905060511 | 19 | 204 | 0.0 | 0.0 | 0.00 | 0.00 | 0.00 | 54 | 984.5 |
| 20260905060010 | 19 | 240 | 0.0 | 0.0 | 0.00 | 0.00 | 0.00 | 53 | 984.3 |
| 20260905055515 | 20 | 240 | 0.0 | 1.6 | 0.00 | 0.00 | 0.00 | 50 | 984.1 |
| 20260905055510 | 19 | 240 | 0.0 | 0.0 | 0.00 | 0.00 | 0.00 | 52 | 984.3 |
| 20260905055010 | 20 | 240 | 0.0 | 1.6 | 0.00 | 0.00 | 0.00 | 52 | 984.1 |
| 20260905054009 | 20 | 244 | 0.0 | 1.6 | 0.00 | 0.00 | 0.00 | 50 | 984.3 |
| 20260905053508 | 20 | 230 | 0.0 | 0.0 | 0.00 | 0.00 | 0.00 | 49 | 984.1 |
| 20260905053008 | 20 | 231 | 0.0 | 6.4 | 0.00 | 0.00 | 0.00 | 48 | 984.3 |
| 20260905052508 | 20 | 196 | 1.6 | 6.4 | 0.00 | 0.00 | 0.00 | 49 | 984.3 |
| 20260905052006 | 20 | 210 | 1.6 | 8.0 | 0.00 | 0.00 | 0.00 | 50 | 984.3 |
| 20260905051506 | 20 | 182 | 1.6 | 11.3 | 0.00 | 0.00 | 0.00 | 51 | 984.1 |
| 20260905051006 | 20 | 185 | 3.2 | 11.3 | 0.00 | 0.00 | 0.00 | 51 | 984.3 |
| 20260905050505 | 20 | 153 | 3.2 | 11.3 | 0.00 | 0.00 | 0.00 | 50 | 984.3 |
| 20260905050005 | 20 | 198 | 3.2 | 11.3 | 0.00 | 0.00 | 0.00 | 49 | 984.3 |
| 20260905045507 | 20 | 198 | 3.2 | 9.7 | 0.00 | 0.00 | 0.00 | 49 | 984.3 |
| 20260905045005 | 20 | 210 | 4.8 | 9.7 | 0.00 | 0.00 | 0.00 | 50 | 984.1 |
| 20260905044511 | 20 | 205 | 3.2 | 8.0 | 0.00 | 0.00 | 0.00 | 50 | 984.0 |
| 20260905044506 | 20 | 149 | 4.8 | 8.0 | 0.00 | 0.00 | 0.00 | 50 | 984.1 |
| 20260905043506 | 20 | 205 | 3.2 | 9.7 | 0.00 | 0.00 | 0.00 | 50 | 984.1 |
| 20260905043006 | 20 | 177 | 3.2 | 11.3 | 0.00 | 0.00 | 0.00 | 50 | 984.3 |
| 20260905042505 | 20 | 144 | 3.2 | 11.3 | 0.00 | 0.00 | 0.00 | 50 | 984.1 |
| 20260905042006 | 20 | 173 | 1.6 | 8.0 | 0.00 | 0.00 | 0.00 | 49 | 984.1 |
| 20260905041511 | 20 | 207 | 1.6 | 8.0 | 0.00 | 0.00 | 0.00 | 48 | 984.1 |
| 20260905041506 | 20 | 198 | 1.6 | 8.0 | 0.00 | 0.00 | 0.00 | 49 | 984.3 |
| 20260905040506 | 20 | 158 | 0.0 | 6.4 | 0.00 | 0.00 | 0.00 | 47 | 984.1 |
| 20260905040005 | 20 | 165 | 1.6 | 6.4 | 0.00 | 0.00 | 0.00 | 46 | 984.1 |
| 20260905035505 | 20 | 141 | 3.2 | 9.7 | 0.00 | 0.00 | 0.00 | 45 | 984.1 |
| 20260905035011 | 21 | 172 | 3.2 | 9.7 | 0.00 | 0.00 | 0.00 | 45 | 984.1 |
| 20260905035006 | 21 | 181 | 3.2 | 9.7 | 0.00 | 0.00 | 0.00 | 45 | 984.0 |
| 20260905034011 | 20 | 172 | 0.0 | 9.7 | 0.00 | 0.00 | 0.00 | 45 | 984.1 |
| 20260905034005 | 21 | 151 | 1.6 | 9.7 | 0.00 | 0.00 | 0.00 | 45 | 984.1 |
| 20260905033005 | 20 | 160 | 1.6 | 6.4 | 0.00 | 0.00 | 0.00 | 46 | 984.0 |
| 20260905032505 | 20 | 129 | 1.6 | 6.4 | 0.00 | 0.00 | 0.00 | 46 | 984.1 |
| 20260905032005 | 20 | 166 | 0.0 | 6.4 | 0.00 | 0.00 | 0.00 | 46 | 984.0 |
| 20260905031506 | 20 | 183 | 0.0 | 4.8 | 0.00 | 0.00 | 0.00 | 46 | 983.9 |
| 20260905031006 | 20 | 193 | 0.0 | 3.2 | 0.00 | 0.00 | 0.00 | 46 | 983.9 |
| 20260905030506 | 21 | 179 | 0.0 | 3.2 | 0.00 | 0.00 | 0.00 | 46 | 983.9 |
| 20260905030005 | 21 | 177 | 0.0 | 0.0 | 0.00 | 0.00 | 0.00 | 45 | 983.9 |
| 20260905025505 | 21 | 151 | 0.0 | 0.0 | 0.00 | 0.00 | 0.00 | 44 | 983.7 |
| 20260905025005 | 21 | 139 | 0.0 | 0.0 | 0.00 | 0.00 | 0.00 | 44 | 983.7 |
| 20260905024505 | 20 | 172 | 0.0 | 4.8 | 0.00 | 0.00 | 0.00 | 45 | 983.7 |
| 20260905024005 | 21 | 191 | 0.0 | 4.8 | 0.00 | 0.00 | 0.00 | 45 | 983.5 |
| 20260905023505 | 21 | 159 | 0.0 | 0.0 | 0.00 | 0.00 | 0.00 | 45 | 983.5 |
| 20260905023005 | 21 | 148 | 0.0 | 0.0 | 0.00 | 0.00 | 0.00 | 44 | 983.4 |
| 20260905022506 | 21 | 202 | 0.0 | 1.6 | 0.00 | 0.00 | 0.00 | 44 | 983.3 |
| 20260905022005 | 21 | 146 | 0.0 | 1.6 | 0.00 | 0.00 | 0.00 | 43 | 983.3 |
| 20260905021505 | 21 | 147 | 0.0 | 1.6 | 0.00 | 0.00 | 0.00 | 43 | 983.3 |
| 20260905021005 | 22 | 166 | 0.0 | 3.2 | 0.00 | 0.00 | 0.00 | 43 | 983.2 |
| 20260905020506 | 22 | 197 | 0.0 | 4.8 | 0.00 | 0.00 | 0.00 | 43 | 983.2 |
| 20260905020009 | 22 | 185 | 0.0 | 4.8 | 0.00 | 0.00 | 0.00 | 42 | 983.1 |
| 20260905020006 | 22 | 148 | 0.0 | 4.8 | 0.00 | 0.00 | 0.00 | 43 | 983.2 |
| 20260905015005 | 23 | 256 | 0.0 | 3.2 | 0.00 | 0.00 | 0.00 | 41 | 983.0 |
| 20260905014506 | 23 | 131 | 0.0 | 6.4 | 0.00 | 0.00 | 0.00 | 39 | 983.0 |
| 20260905014005 | 24 | 140 | 0.0 | 6.4 | 0.00 | 0.00 | 0.00 | 37 | 982.8 |
| 20260905013507 | 24 | 155 | 0.0 | 1.6 | 0.00 | 0.00 | 0.00 | 36 | 982.8 |
| 20260905013006 | 24 | 272 | 0.0 | 1.6 | 0.00 | 0.00 | 0.00 | 36 | 982.8 |
| 20260905012504 | 23 | 9 | 0.0 | 6.4 | 0.00 | 0.00 | 0.00 | 37 | 982.7 |
| 20260905012003 | 23 | 239 | 0.0 | 6.4 | 0.00 | 0.00 | 0.00 | 41 | 982.6 |
| 20260905011503 | 25 | 170 | 0.0 | 4.8 | 0.00 | 0.00 | 0.00 | 38 | 982.7 |
| 20260905011004 | 25 | 184 | 0.0 | 3.2 | 0.00 | 0.00 | 0.00 | 36 | 982.6 |
| 20260905010503 | 25 | 160 | 0.0 | 0.0 | 0.00 | 0.00 | 0.00 | 34 | 982.6 |
| 20260905010004 | 26 | 338 | 0.0 | 1.6 | 0.00 | 0.00 | 0.00 | 33 | 982.5 |
| 20260905005504 | 26 | 253 | 0.0 | 8.0 | 0.00 | 0.00 | 0.00 | 31 | 982.5 |
| 20260905005004 | 26 | 134 | 1.6 | 8.0 | 0.00 | 0.00 | 0.00 | 31 | 982.5 |
| 20260905004507 | 27 | 141 | 11.3 | 33.8 | 0.00 | 0.00 | 0.00 | 31 | 982.6 |
| 20260905004503 | 27 | 340 | 6.4 | 33.8 | 0.00 | 0.00 | 0.00 | 32 | 982.6 |
| 20260905003504 | 27 | 209 | 6.4 | 27.4 | 0.00 | 0.00 | 0.00 | 31 | 982.6 |
| 20260905003001 | 27 | 185 | 1.6 | 12.9 | 0.00 | 0.00 | 0.00 | 29 | 982.7 |
| 20260905002501 | 27 | 189 | 1.6 | 6.4 | 0.00 | 0.00 | 0.00 | 28 | 982.6 |
| 20260905002002 | 28 | 176 | 1.6 | 6.4 | 0.00 | 0.00 | 0.00 | 28 | 982.5 |
| 20260905001501 | 28 | 191 | 1.6 | 6.4 | 0.00 | 0.00 | 0.00 | 28 | 982.5 |
| 20260905001001 | 28 | 188 | 1.6 | 8.0 | 0.00 | 0.00 | 0.00 | 27 | 982.5 |
| 20260905000502 | 29 | 200 | 0.0 | 8.0 | 0.00 | 0.00 | 0.00 | 25 | 982.5 |
| 20260905000001 | 30 | 210 | 0.0 | 1.6 | 0.00 | 0.00 | 0.00 | 25 | 982.2 |
| 20260904235502 | 30 | 141 | 0.0 | 1.6 | 0.00 | 0.00 | 0.00 | 24 | 982.1 |
| 20260904235001 | 31 | 130 | 0.0 | 4.8 | 0.00 | 0.00 | 0.00 | 24 | 982.1 |
| 20260904234505 | 31 | 146 | 0.0 | 4.8 | 0.00 | 0.00 | 0.00 | 24 | 982.2 |
| 20260904234501 | 31 | 122 | 0.0 | 8.0 | 0.00 | 0.00 | 0.00 | 23 | 982.1 |
| 20260904233503 | 32 | 143 | 0.0 | 6.4 | 0.00 | 0.00 | 0.00 | 22 | 982.0 |
| 20260904233459 | 32 | 164 | 0.0 | 8.0 | 0.00 | 0.00 | 0.00 | 22 | 982.0 |
| 20260904232459 | 32 | 297 | 0.0 | 4.8 | 0.00 | 0.00 | 0.00 | 22 | 982.0 |
| 20260904231959 | 32 | 219 | 0.0 | 4.8 | 0.00 | 0.00 | 0.00 | 23 | 982.0 |
| 20260904231459 | 32 | 35 | 0.0 | 4.8 | 0.00 | 0.00 | 0.00 | 22 | 982.0 |
| 20260904231001 | 32 | 195 | 0.0 | 1.6 | 0.00 | 0.00 | 0.00 | 22 | 982.0 |
| 20260904230503 | 31 | 199 | 0.0 | 0.0 | 0.00 | 0.00 | 0.00 | 23 | 982.0 |
| 20260904230459 | 32 | 130 | 0.0 | 1.6 | 0.00 | 0.00 | 0.00 | 22 | 982.0 |
| 20260904225458 | 30 | 141 | 0.0 | 0.0 | 0.00 | 0.00 | 0.00 | 24 | 982.0 |
| 20260904225001 | 30 | 140 | 1.6 | 9.7 | 0.00 | 0.00 | 0.00 | 23 | 982.1 |
| 20260904224957 | 30 | 158 | 1.6 | 9.7 | 0.00 | 0.00 | 0.00 | 24 | 982.1 |
| 20260904224603 | 30 | 246 | 0.0 | 9.7 | 0.00 | 0.00 | 0.00 | 23 | 982.1 |
| 20260904223501 | 31 | 153 | 1.6 | 8.0 | 0.00 | 0.00 | 0.00 | 21 | 982.0 |
| 20260904223457 | 31 | 142 | 0.0 | 9.7 | 0.00 | 0.00 | 0.00 | 22 | 982.1 |
| 20260904222456 | 32 | 147 | 0.0 | 9.7 | 0.00 | 0.00 | 0.00 | 20 | 982.1 |
| 20260904221956 | 33 | 142 | 1.6 | 9.7 | 0.00 | 0.00 | 0.00 | 20 | 982.1 |
| 20260904221500 | 33 | 174 | 4.8 | 16.1 | 0.00 | 0.00 | 0.00 | 20 | 982.2 |
| 20260904221455 | 33 | 146 | 1.6 | 9.7 | 0.00 | 0.00 | 0.00 | 21 | 982.1 |
| 20260904220955 | 33 | 217 | 3.2 | 16.1 | 0.00 | 0.00 | 0.00 | 21 | 982.1 |
| 20260904220600 | 33 | 189 | 3.2 | 14.5 | 0.00 | 0.00 | 0.00 | 20 | 982.2 |
| 20260904215455 | 33 | 117 | 1.6 | 6.4 | 0.00 | 0.00 | 0.00 | 20 | 982.2 |
| 20260904214955 | 33 | 137 | 1.6 | 8.0 | 0.00 | 0.00 | 0.00 | 20 | 982.4 |
| 20260904214455 | 33 | 199 | 1.6 | 9.7 | 0.00 | 0.00 | 0.00 | 20 | 982.4 |
| 20260904213955 | 32 | 221 | 1.6 | 9.7 | 0.00 | 0.00 | 0.00 | 21 | 982.4 |
| 20260904213453 | 32 | 72 | 1.6 | 9.7 | 0.00 | 0.00 | 0.00 | 21 | 982.4 |
| 20260904212956 | 31 | 204 | 3.2 | 17.7 | 0.00 | 0.00 | 0.00 | 21 | 982.5 |
| 20260904212952 | 32 | 208 | 4.8 | 17.7 | 0.00 | 0.00 | 0.00 | 21 | 982.5 |
| 20260904211952 | 31 | 141 | 1.6 | 9.7 | 0.00 | 0.00 | 0.00 | 22 | 982.6 |
| 20260904211452 | 32 | 168 | 0.0 | 8.0 | 0.00 | 0.00 | 0.00 | 22 | 982.6 |
| 20260904210953 | 31 | 146 | 0.0 | 8.0 | 0.00 | 0.00 | 0.00 | 22 | 982.6 |
| 20260904210453 | 31 | 122 | 1.6 | 9.7 | 0.00 | 0.00 | 0.00 | 22 | 982.7 |
| 20260904205952 | 31 | 134 | 3.2 | 11.3 | 0.00 | 0.00 | 0.00 | 22 | 982.8 |
| 20260904205453 | 31 | 191 | 1.6 | 11.3 | 0.00 | 0.00 | 0.00 | 21 | 983.0 |
| 20260904204953 | 31 | 195 | 0.0 | 8.0 | 0.00 | 0.00 | 0.00 | 24 | 983.0 |
| 20260904204453 | 30 | 175 | 1.6 | 8.0 | 0.00 | 0.00 | 0.00 | 23 | 983.1 |
| 20260904203953 | 30 | 132 | 3.2 | 14.5 | 0.00 | 0.00 | 0.00 | 23 | 983.1 |
| 20260904203453 | 31 | 174 | 4.8 | 14.5 | 0.00 | 0.00 | 0.00 | 23 | 983.1 |
| 20260904202953 | 31 | 160 | 4.8 | 14.5 | 0.00 | 0.00 | 0.00 | 21 | 983.1 |
| 20260904202453 | 31 | 179 | 3.2 | 12.9 | 0.00 | 0.00 | 0.00 | 21 | 983.1 |
| 20260904201952 | 31 | 137 | 3.2 | 12.9 | 0.00 | 0.00 | 0.00 | 22 | 983.1 |
| 20260904201453 | 31 | 129 | 1.6 | 12.9 | 0.00 | 0.00 | 0.00 | 22 | 983.2 |
| 20260904200953 | 31 | 202 | 4.8 | 20.9 | 0.00 | 0.00 | 0.00 | 21 | 983.1 |
| 20260904195953 | 31 | 155 | 8.0 | 17.7 | 0.00 | 0.00 | 0.00 | 22 | 983.3 |
| 20260904195452 | 30 | 242 | 8.0 | 17.7 | 0.00 | 0.00 | 0.00 | 22 | 983.3 |
| 20260904194953 | 30 | 212 | 4.8 | 16.1 | 0.00 | 0.00 | 0.00 | 23 | 983.5 |
| 20260904194458 | 30 | 214 | 6.4 | 19.3 | 0.00 | 0.00 | 0.00 | 22 | 983.4 |
| 20260904194452 | 30 | 217 | 3.2 | 12.9 | 0.00 | 0.00 | 0.00 | 22 | 983.4 |
| 20260904193600 | 29 | 173 | 3.2 | 12.9 | 0.00 | 0.00 | 0.00 | 23 | 983.5 |
| 20260904193458 | 30 | 205 | 3.2 | 12.9 | 0.00 | 0.00 | 0.00 | 23 | 983.5 |
| 20260904193452 | 30 | 150 | 6.4 | 19.3 | 0.00 | 0.00 | 0.00 | 22 | 983.5 |
| 20260904191952 | 29 | 240 | 3.2 | 12.9 | 0.00 | 0.00 | 0.00 | 21 | 983.7 |
| 20260904191452 | 30 | 224 | 4.8 | 12.9 | 0.00 | 0.00 | 0.00 | 21 | 983.7 |
| 20260904190952 | 30 | 186 | 6.4 | 20.9 | 0.00 | 0.00 | 0.00 | 21 | 983.7 |
| 20260904190452 | 30 | 290 | 6.4 | 20.9 | 0.00 | 0.00 | 0.00 | 21 | 983.8 |
| 20260904185958 | 30 | 206 | 4.8 | 19.3 | 0.00 | 0.00 | 0.00 | 21 | 983.8 |
| 20260904185953 | 30 | 218 | 3.2 | 16.1 | 0.00 | 0.00 | 0.00 | 21 | 983.8 |
| 20260904184953 | 30 | 280 | 8.0 | 27.4 | 0.00 | 0.00 | 0.00 | 21 | 984.0 |
| 20260904184454 | 30 | 214 | 4.8 | 27.4 | 0.00 | 0.00 | 0.00 | 22 | 984.0 |
| 20260904183953 | 30 | 193 | 3.2 | 16.1 | 0.00 | 0.00 | 0.00 | 21 | 984.0 |
| 20260904183453 | 30 | 131 | 4.8 | 27.4 | 0.00 | 0.00 | 0.00 | 23 | 984.0 |
| 20260904182950 | 30 | 259 | 4.8 | 27.4 | 0.00 | 0.00 | 0.00 | 21 | 984.0 |
| 20260904182450 | 30 | 164 | 3.2 | 11.3 | 0.00 | 0.00 | 0.00 | 21 | 984.1 |
| 20260904181950 | 29 | 197 | 3.2 | 14.5 | 0.00 | 0.00 | 0.00 | 22 | 984.3 |
| 20260904181447 | 29 | 304 | 3.2 | 14.5 | 0.00 | 0.00 | 0.00 | 21 | 984.4 |